Location: *
(51.4814°N, 10.3131°E)
Time: 05:29:00
(UTC+00:00)

Daily predictions for brighter satellites

Satellite Brightness Start Highest point End
(mag) Time Altitude Azimuth Time Altitude Azimuth Time Altitude Azimuth
H-2A R/B 4.4 00:13:54 20° NNE 00:13:54 20° NNE 00:15:37 10° N
Cosmos 2263 Rocket 3.6 00:12:47 32° NW 00:12:47 32° NW 00:17:28 10° NNE
USA 267 3.6 00:07:44 10° ENE 00:14:08 59° N 00:15:25 50° NW
Lacrosse 5 rocket 4.3 00:20:20 12° ENE 00:20:20 12° ENE 00:20:40 10° ENE
Cosmos 1607 4.4 00:18:43 57° NNE 00:18:43 57° NNE 00:23:41 10° NE
Cosmos 2278 Rocket 3.8 00:19:50 27° E 00:19:50 27° E 00:23:25 10° NE
Cosmos 1833 Rocket 3.5 00:18:26 10° NNW 00:22:46 47° N 00:22:46 47° N
Cosmos 1464 Rocket 4.3 00:21:02 10° N 00:26:28 66° N 00:26:28 66° N
Cosmos 2034 Rocket 4.1 00:35:32 10° N 00:41:03 69° NNE 00:41:03 69° NNE
Cosmos 2221 4.4 00:49:27 27° N 00:49:27 27° N 00:51:31 10° N
CZ-4B R/B 4.4 00:42:25 10° NNE 00:45:48 45° NNE 00:45:48 45° NNE
ADEOS II 4.1 00:44:35 10° NE 00:48:13 19° E 00:49:18 18° ESE
ATLAS CENTAUR R/B 3.5 00:50:32 26° NNW 00:50:32 26° NNW 00:54:23 10° NNE
Resurs 1-4 Rocket 2.8 00:48:38 10° NNE 00:53:02 48° ENE 00:53:02 48° ENE
NPP 4.0 01:00:50 10° NNE 01:05:43 60° ENE 01:05:43 60° ENE
ATLAS 5 CENTAUR R/B 3.0 01:10:13 36° ENE 01:10:13 36° ENE 01:13:27 10° NE
Gbstr 26 Del rocket 4.4 01:10:26 69° S 01:11:00 71° SSE 01:19:04 10° ENE
Meteor 2-10 Rocket 4.4 01:15:31 45° NW 01:15:31 45° NW 01:20:17 10° N
CZ-2D R/B 2.3 01:10:26 10° NNE 01:15:14 68° NE 01:15:14 68° NE
Cosmos 2082 Rocket 2.5 01:11:58 10° NNW 01:16:33 58° NNW 01:16:33 58° NNW
Cosmos 1844 Rocket 3.6 01:24:44 36° NW 01:24:49 36° NW 01:30:03 10° NNE
CZ-4B R/B 3.7 01:26:02 25° NE 01:26:02 25° NE 01:28:20 10° N
Meteor 2-11 Rocket 4.5 01:19:14 10° NNW 01:24:45 65° WNW 01:24:45 65° WNW
Lacrosse 5 2.5 01:26:32 48° NNW 01:26:49 48° N 01:31:46 10° ENE
SL-4 R/B 4.3 01:33:08 16° E 01:33:08 16° E 01:33:58 10° E
IRS-1D 3.7 01:26:31 10° NNE 01:31:52 66° ESE 01:32:06 65° ESE
Cosmos 1633 Rocket 4.4 01:27:38 10° NNW 01:30:12 34° NNW 01:30:12 34° NNW
Tsikada Rocket 3.8 01:33:33 78° SW 01:33:58 84° W 01:40:11 10° N
Cosmos 1932 4.4 01:33:52 66° W 01:34:28 71° NW 01:40:54 10° NE
SJ 16-02 2.5 01:30:31 10° NNW 01:33:15 37° NNW 01:33:15 37° NNW
deb Chang Zheng 4 4.3 01:32:28 10° NNE 01:36:24 49° E 01:36:24 49° E
MOS 1-B Rocket 4.0 01:31:20 10° NNE 01:38:20 77° WNW 01:39:08 68° SW
Cosmos 1356 Rocket 4.3 01:40:29 45° ENE 01:40:29 45° ENE 01:43:57 10° NNE
CZ-4C R/B 4.4 01:37:35 10° WNW 01:39:37 19° WNW 01:39:37 19° WNW
Cosmos 2346 Rocket 4.4 01:44:20 64° W 01:44:40 66° WNW 01:50:49 10° N
SL-16 R/B 3.2 01:46:30 38° WNW 01:46:30 38° WNW 01:51:12 10° NNW
H-2A R/B 4.3 01:51:00 14° NW 01:51:00 14° NW 01:51:44 10° NNW
ATLAS 5 CENTAUR R/B 4.0 01:50:02 14° E 01:50:02 14° E 01:50:56 10° ENE
Cosmos 1570 Rocket 4.3 01:50:00 54° SE 01:50:44 59° ESE 01:55:58 10° NNE
IRS-P3 Rocket 4.5 01:49:42 10° NNE 01:55:09 83° WNW 01:55:41 73° SW
Cosmos 972 Rocket 3.8 01:50:54 10° NNW 01:55:57 85° ENE 01:56:37 67° SE
Lacrosse 5 rocket 2.2 01:56:02 45° N 01:56:32 48° NNE 02:00:43 10° E
USA 267 3.7 01:50:20 10° E 01:56:45 60° N 02:02:44 12° WNW
Cosmos 2279 Rocket 3.9 01:55:32 10° N 02:01:50 85° E 02:05:13 29° SSE
Cosmos 2278 Rocket 2.3 02:01:41 55° W 02:02:21 58° NW 02:07:59 10° NNE
IRS-P3 4.0 01:57:55 10° NNE 02:03:17 78° WNW 02:03:58 67° SW
Cosmos 1634 Rocket 4.0 01:57:29 10° NNW 02:03:44 63° W 02:04:52 54° SW
Cosmos 1833 Rocket 4.5 02:02:50 10° NW 02:04:24 17° WNW 02:04:24 17° WNW
Cosmos 1461 4.3 02:06:22 10° NNW 02:10:05 36° NE 02:13:53 10° ESE
ARIANE 5 R/B 2.5 02:06:43 10° NNE 02:11:55 82° ESE 02:13:12 52° S
CRYOSAT 2 4.3 02:10:42 50° SSE 02:12:00 83° E 02:16:53 10° N
SL-08 R/B 4.1 02:14:00 37° WNW 02:14:00 37° WNW 02:17:24 10° NNW
Cosmos 1328 Rocket 3.6 02:13:56 62° NW 02:13:56 62° NW 02:17:56 10° N
AQUA 4.3 02:10:16 10° N 02:14:40 43° WNW 02:14:40 43° WNW
Cosmos 1151 Rocket 3.0 02:15:26 68° NW 02:15:26 68° NW 02:19:31 10° N
Elektron 3 4.5 02:18:38 55° NNE 02:18:38 55° NNE 02:21:55 10° NE
Meteor 1-28 Rocket 3.8 02:17:15 35° SE 02:18:33 56° ENE 02:22:15 10° N
Cosmos 1937 Rocket 4.2 02:15:49 10° NW 02:19:29 36° WNW 02:19:29 36° WNW
Cosmos 967 Rocket 4.4 02:15:03 10° NW 02:21:29 74° SW 02:27:54 10° SSE
IDEFIX/ARIANE 42P 4.4 02:18:24 10° NE 02:22:55 28° E 02:27:24 10° SSE
BREEZE-M DEB (TANK) 4.0 02:22:43 39° SSW 02:24:41 54° SSE 02:40:44 10° E
Cosmos 1933 Rocket 3.7 02:21:01 10° NNW 02:25:12 57° W 02:25:12 57° W
SME Rocket 4.4 02:17:06 10° NNE 02:25:27 59° WNW 02:27:31 40° WSW
USA 238 DEB 4.2 02:22:13 28° S 02:25:39 53° ESE 02:32:22 10° NE
USA 238 4.2 02:22:19 28° S 02:25:47 52° ESE 02:32:29 10° NE
Cosmos 1763 Rocket 3.4 02:24:48 52° SW 02:26:05 76° WNW 02:31:27 10° NNE
Cosmos 468 Rocket 4.1 02:25:46 50° WSW 02:26:52 61° WNW 02:32:09 10° NNE
ADEOS II 2.0 02:23:15 10° NNE 02:28:33 78° WNW 02:30:14 44° SSW
CZ-2D R/B 3.4 02:24:52 10° NNE 02:28:59 80° ESE 02:29:44 57° S
ATLAS CENTAUR R/B 4.2 02:27:42 10° NW 02:30:48 17° N 02:33:47 10° NE
Cosmos 1689 Rocket 3.6 02:32:54 30° NNW 02:32:54 30° NNW 02:34:38 10° NNW
Cosmos 540 Rocket 3.7 02:30:44 32° S 02:33:03 65° ESE 02:38:11 10° NNE
Resurs 1-4 Rocket 3.1 02:28:54 10° N 02:33:24 30° WNW 02:34:06 29° WNW
Cosmos 1933 3.2 02:34:12 64° SSW 02:34:46 83° W 02:38:50 10° N
Cosmos 1515 Rocket 3.5 02:34:37 57° WSW 02:35:07 62° WNW 02:39:31 10° N
Cosmos 1125 Rocket 3.8 02:30:28 10° NNW 02:35:48 70° ENE 02:41:06 10° SSE
Nadezhda 4 Rocket 4.3 02:34:06 11° S 02:39:59 65° E 02:46:03 10° NNE
H-2A R/B 4.5 02:38:04 10° NE 02:41:14 24° E 02:44:22 10° SSE
Cosmos 1814 Rocket 3.9 02:40:08 37° SSW 02:42:13 89° WNW 02:47:26 10° NNE
CZ-2C R/B 2.8 02:39:05 10° NNE 02:43:08 87° ESE 02:44:24 43° SSW
Cosmos 1943 Rocket 3.2 02:39:34 13° S 02:44:01 41° ESE 02:49:11 10° NE
Unknown 4.1 02:44:35 34° SSE 02:44:52 35° SSE 02:48:07 10° E
SeaSat 1 3.5 02:40:49 10° NE 02:45:29 40° ESE 02:49:25 14° S
Cosmos 2150 Rocket 4.1 02:43:24 10° NNW 02:48:44 56° WSW 02:54:04 10° S
ATLAS 5 CENTAUR R/B 2.6 02:51:45 28° WNW 02:53:32 39° NNW 02:58:23 10° NE
CZ-2D R/B 3.5 02:51:19 10° N 02:55:18 22° NW 02:56:33 20° WNW
NOSS 3-3 (A) 4.4 02:48:01 10° NW 02:55:19 65° SW 03:03:24 10° SSE
NOSS 3-3 (C) 4.4 02:48:07 10° NW 02:55:26 65° SW 03:03:31 10° SSE
COSMOS 2487 3.9 02:53:47 10° N 02:57:07 39° ENE 03:00:24 10° SE
CZ-4B R/B 3.3 02:59:20 18° NW 02:59:20 18° NW 03:00:41 10° NW
Cosmos 2208 Rocket 4.3 02:55:52 33° WSW 02:58:03 53° WNW 03:03:14 10° NNE
Unknown 2.8 02:57:56 63° SW 02:58:21 79° SSE 03:01:36 10° ENE
BREEZE-M DEB (TANK) 4.3 02:53:12 23° SW 03:00:05 47° S 03:04:19 10° E
Cosmos 372 Rocket 4.1 02:55:14 10° NNW 03:00:19 50° WSW 03:05:19 10° S
Spot 4 Rocket 4.3 02:55:51 10° N 03:00:50 51° WNW 03:03:11 29° SW
Cosmos 2082 Rocket 4.1 02:57:25 10° WNW 02:58:19 13° WNW 02:58:19 13° WNW
Cosmos 1869 Rocket 3.5 02:57:55 10° NNW 03:02:22 64° W 03:06:48 10° S
Cosmos 2298 Rocket 4.4 02:57:46 10° NW 03:02:44 40° WSW 03:07:39 10° S
USA 215 4.2 02:56:41 10° ENE 03:02:45 39° SE 03:08:20 12° SSW
Cosmos 2297 3.9 03:03:04 28° WSW 03:05:56 56° NW 03:11:34 10° NNE
Falcon 9 debris 3.5 03:06:56 38° SSW 03:07:57 55° SSE 03:11:23 10° ENE
SL-4 R/B 1.5 03:08:45 35° W 03:10:04 85° S 03:13:40 10° ESE
Lacrosse 5 2.6 03:05:44 11° WNW 03:10:30 51° NNE 03:15:28 10° E
Cosmos 2228 Rocket 3.6 03:10:44 29° WSW 03:12:26 40° WNW 03:16:44 10° N
NOSS 3-2 (A) 3.5 03:08:36 20° SSW 03:12:47 77° SE 03:19:32 10° NE
Cosmos 841 Rocket 3.7 03:10:34 26° SW 03:13:17 53° WNW 03:18:25 10° NNE
NOSS 3-2 (C) 4.0 03:08:29 14° SSW 03:13:26 56° SE 03:19:57 10° NE
RUBIN 8/PSLV 4.5 03:11:35 10° NNE 03:15:55 78° WNW 03:19:30 15° SSW
Unknown 3.5 03:16:35 31° SW 03:18:03 58° SSE 03:21:34 10° ENE
Cosmos 1833 4.3 03:12:31 10° NNW 03:18:12 79° ENE 03:23:48 10° SE
Cosmos 1606 3.4 03:18:32 28° WSW 03:19:49 37° WNW 03:23:28 10° N
Meteor 1-20 Rocket 4.5 03:14:45 10° NNW 03:19:53 43° W 03:25:02 10° SSW
Unknown 2.7 03:19:25 37° W 03:20:22 69° N 03:23:14 10° ENE
ADEOS 3.6 03:16:56 10° NNE 03:22:12 87° ESE 03:27:26 10° SSW
Cosmos 2084 3.6 03:22:16 24° WSW 03:24:55 69° NW 03:29:21 10° NE
ATLAS 3B R/B 3.3 03:19:11 10° SSW 03:25:35 53° ESE 03:31:57 10° NE
Cosmos 2369 Rocket 2.4 03:20:04 10° SSW 03:25:44 73° ESE 03:31:26 10° NNE
PSLV R/B 4.1 03:24:53 10° S 03:28:55 50° W 03:32:58 10° NNW
Unknown 4.2 03:28:08 19° SSW 03:30:29 41° SSE 03:34:02 10° ENE
Cosmos 1782 2.8 03:27:49 14° SSW 03:31:04 60° WNW 03:35:00 10° N
ISS -1.5 03:32:39 12° SSW 03:32:39 12° SSW 03:33:14 10° S
MSX 4.2 03:28:20 10° NNE 03:34:07 69° ESE 03:39:50 10° S
Lacrosse 5 rocket 1.4 03:31:44 10° WNW 03:35:51 59° SW 03:40:11 10° SE
USA 267 3.2 03:33:05 10° ESE 03:39:39 83° SSW 03:46:14 10° WNW
Cosmos 1862 Rocket 4.2 03:35:56 10° S 03:40:19 60° E 03:44:45 10° NNE
BREEZE-M DEB (TANK) 3.8 03:31:48 10° W 03:42:34 66° SSW 03:46:01 10° ESE
Cosmos 1400 Rocket 2.8 03:38:59 10° S 03:42:55 81° ESE 03:46:50 10° NNE
Cosmos 1602 4.4 03:41:17 10° NNW 03:44:53 35° W 03:48:29 10° SSW
Iridium 4 Rocket 3.1 03:41:02 10° SSW 03:45:41 67° W 03:50:01 10° N
FALCON 9 DEB 3.2 03:43:23 18° WSW 03:45:52 81° SSE 03:49:25 10° ENE
CZ-4B R/B 4.0 03:42:10 10° NNE 03:46:35 53° E 03:51:01 10° S
Cosmos 1500 3.4 03:43:20 10° N 03:47:06 72° ENE 03:50:50 10° SSE
Cosmos 2278 Rocket 4.0 03:43:50 10° WNW 03:47:42 18° NNW 03:51:35 10° NNE
Cosmos 1461 3.3 03:45:28 10° NW 03:49:12 38° WSW 03:53:02 10° S
Cosmos 2344 3.7 03:43:01 12° SW 03:50:05 78° NW 03:58:52 10° NE
ARIANE 5 R/B 4.0 03:46:47 10° N 03:50:27 20° NW 03:53:32 12° W
Cosmos 1536 3.1 03:52:56 10° N 03:56:56 71° ENE 04:00:54 10° SSE
Unknown 3.1 03:55:32 14° WSW 03:58:26 87° NNW 04:01:55 10° ENE
Okean O Rocket 4.3 03:56:51 10° NE 04:00:30 24° E 04:04:08 10° SSE
COSMO-SKYMED 1 3.5 03:56:24 10° SSE 04:00:38 54° ENE 04:04:54 10° N
Cosmos 1092 Rocket 4.1 03:54:41 10° SSW 04:00:41 55° WNW 04:06:45 10° N
Cosmos 1812 3.1 03:56:56 10° S 04:00:46 68° E 04:04:37 10° NNE
IDEFIX/ARIANE 42P 2.8 03:57:40 10° N 04:02:47 53° WNW 04:07:53 10° SW
Unknown 4.1 04:00:57 10° SW 04:04:43 49° SSE 04:08:29 10° ENE
Meteor 1-31 Rocket 3.0 04:02:19 10° NNE 04:06:18 79° ESE 04:10:12 10° S
Cosmos 1908 Rocket 3.7 04:02:09 10° N 04:06:30 81° ENE 04:10:51 10° SSE
ADEOS II 3.8 04:04:17 10° NNW 04:07:27 16° NW 04:10:37 10° W
CZ-4B R/B 3.7 04:06:57 10° NNE 04:10:45 85° ESE 04:14:25 10° SSW
Cosmos 1707 Rocket 4.3 04:07:04 10° SW 04:11:08 34° WNW 04:15:12 10° N
CENTAUR R/B 2.7 04:05:04 10° SW 04:11:13 85° SE 04:18:31 10° NE
ATLAS CENTAUR R/B 3.8 04:07:38 10° NNW 04:11:21 22° NNE 04:14:53 10° ENE
Cosmos 1346 Rocket 2.8 04:09:24 10° NNW 04:13:30 76° W 04:17:35 10° S
SJ-6F 4.5 04:10:03 10° N 04:14:14 68° WNW 04:18:23 10° SSW
Cosmos 44 3.9 04:11:04 10° SSW 04:16:00 59° SE 04:20:44 10° NE
USA 238 DEB 4.1 04:10:02 10° WSW 04:16:42 54° NNW 04:23:37 10° NE
USA 238 4.1 04:10:08 10° WSW 04:16:49 54° NNW 04:23:44 10° NE
H-2A R/B 2.9 04:13:17 10° N 04:16:52 36° WNW 04:20:23 10° SW
PAYLOAD A 3.9 04:12:13 10° N 04:17:04 66° WNW 04:21:44 10° SSW
BREEZE-M DEB (TANK) 3.3 04:13:46 10° SW 04:17:55 39° SSE 04:20:12 10° E
Unknown 3.7 04:15:11 10° WSW 04:18:59 63° SSE 04:22:47 10° ENE
Cosmos 1733 Rocket 3.8 04:16:20 10° NNW 04:20:20 33° W 04:24:20 10° SSW
